Simultaneous Nadir Overpasses (SNOs) Predictions

Prediction of SNOs between AQUA and METOP-B Satellite Orbit:

Table of predicted SNOs for the next 14.0 days since TLE Epoch: 6/16/2022
Index Date (AQUA) Time (AQUA) Lat,Lon (AQUA) SZA (AQUA ) Date (METOP-B) Time (METOP-B) Lat,Lon (METOP-B) SZA (METOP-B ) Distance(km) Time Diff (sec)
1 06/17/2022 13:33:18 73.94, -28.73 50.56 06/17/2022 13:32:51 73.94, -28.80 50.56 2.35 27
2 06/17/2022 14:22:45 -74.04, 138.70 129.34 06/17/2022 14:23:31 -74.04, 138.77 129.36 2.38 46
3 06/20/2022 08:17:34 -73.95,-129.80 129.48 06/20/2022 08:16:34 -73.95,-129.69 129.48 3.33 60
4 06/20/2022 09:07:02 74.00, 37.73 50.58 06/20/2022 09:07:13 73.97, 37.70 50.55 3.33 11
5 06/20/2022 09:56:37 -74.50,-155.81 128.88 06/20/2022 09:57:45 -74.47,-153.73 129.00 62.14 68
6 06/23/2022 03:51:16 -73.99, -63.29 129.43 06/23/2022 03:50:55 -73.98, -63.21 129.43 2.59 21
7 06/23/2022 04:40:44 74.04, 104.24 50.63 06/23/2022 04:41:33 74.05, 104.30 50.63 2.34 49
8 06/25/2022 22:35:32 73.97,-164.29 50.62 06/25/2022 22:34:36 73.95,-164.22 50.60 3.27 56
9 06/25/2022 23:24:58 -74.00, 3.27 129.35 06/25/2022 23:25:17 -74.01, 3.26 129.34 0.54 19
10 06/26/2022 00:14:38 74.67, 169.31 51.38 06/26/2022 00:15:43 74.66, 172.27 51.27 87.23 65
11 06/28/2022 17:19:38 -73.55, 95.58 129.72 06/28/2022 17:18:29 -73.45, 93.70 129.73 60.54 69
12 06/28/2022 18:09:13 73.97, -97.70 50.74 06/28/2022 18:08:58 73.96, -97.77 50.74 2.41 15
13 06/28/2022 18:58:40 -74.05, 69.75 129.17 06/28/2022 18:59:39 -74.03, 69.71 129.20 3.08 59



Historial Predications of SNOs between AQUA and METOP-B
